Weather History for Algona, IA

Change the Weather History Date:

Saturday, March 10, 2012

  Actual Average Record
Temperature  
Mean Temperature 50 °F -  
Max Temperature 64 °F 31 °F 64 °F (2012)
Min Temperature 35 °F 18 °F 0 °F (1998)
Degree Days  
Heating Degree Days 16    
Moisture  
Dew Point 28 °F    
Average Humidity 48    
Maximum Humidity 75    
Minimum Humidity 22    
Precipitation  
Precipitation 0.00 in - - ()
Sea Level Pressure  
Sea Level Pressure 30.07 in    
Wind  
Wind Speed 19 mph (SSW)    
Max Wind Speed 30 mph    
Max Gust Speed 38 mph    
Visibility 10 miles    
Events      
Averages and records for this station are not official NWS values.
T = Trace of Precipitation, MM = Missing Value Source: NWS Daily Summary

Daily Weather History Graph

Daily Weather History Graph

Search for Another Location

Airport:

Trip Planner

Search our weather history database for the weather conditions in past years. The results will help you decide how hot, cold, wet, or windy it might be!

Date:

Astronomy

Mar. 10, 2012 Rise Set
Actual Time 6:36 AM CST 6:18 PM CST
Civil Twilight 6:08 AM CST 6:46 PM CST
Nautical Twilight 5:35 AM CST 7:19 PM CST
Astronomical Twilight 5:02 AM CST 7:52 PM CST
Moon 9:38 PM CST (3/10) 7:26 AM CST (3/10)
Length of Visible Light 12h 37m
Length of Day
11h 41m
Waning Gibbous, 92% of the Moon is Illuminated
Mar 10
Waning Gibbous
Mar 14
Last Quarter
Mar 22
New
Mar 30
First Quarter
Apr 6
Full

Hourly Weather History & Observations

Time (CST) Temp. Windchill Dew Point Humidity Pressure Visibility Wind Dir Wind Speed Gust Speed Precip Events Conditions
12:15 AM 37.4 °F 27.2 °F 26.6 °F 65% 30.17 in 10.0 mi South 19.6 mph - N/A   Clear
12:35 AM 37.4 °F 27.5 °F 26.6 °F 65% 30.16 in 10.0 mi South 18.4 mph 23.0 mph N/A   Clear
12:55 AM 37.4 °F 27.8 °F 26.6 °F 65% 30.16 in 10.0 mi South 17.3 mph - N/A   Clear
1:15 AM 37.4 °F 27.8 °F 28.4 °F 70% 30.15 in 10.0 mi South 17.3 mph - N/A   Clear
1:35 AM 35.6 °F 25.5 °F 28.4 °F 75% 30.15 in 10.0 mi South 17.3 mph - N/A   Clear
1:55 AM 35.6 °F 25.5 °F 28.4 °F 75% 30.14 in 10.0 mi South 17.3 mph - N/A   Clear
2:15 AM 35.6 °F 25.5 °F 28.4 °F 75% 30.13 in 10.0 mi South 17.3 mph - N/A   Clear
2:35 AM 35.6 °F 25.9 °F 28.4 °F 75% 30.13 in 10.0 mi South 16.1 mph - N/A   Clear
2:55 AM 35.6 °F 26.6 °F 28.4 °F 75% 30.12 in 10.0 mi South 13.8 mph - N/A   Clear
3:15 AM 37.4 °F 28.2 °F 26.6 °F 65% 30.11 in 10.0 mi South 16.1 mph - N/A   Clear
3:35 AM 37.4 °F 28.2 °F 26.6 °F 65% 30.10 in 10.0 mi SSW 16.1 mph - N/A   Clear
3:55 AM 39.2 °F 30.5 °F 26.6 °F 61% 30.10 in 10.0 mi SSW 16.1 mph - N/A   Clear
4:15 AM 37.4 °F 28.2 °F 26.6 °F 65% 30.10 in 10.0 mi SSW 16.1 mph - N/A   Clear
4:35 AM 37.4 °F 28.5 °F 26.6 °F 65% 30.10 in 10.0 mi SSW 15.0 mph - N/A   Clear
4:55 AM 37.4 °F 28.2 °F 26.6 °F 65% 30.10 in 10.0 mi SSW 16.1 mph - N/A   Clear
5:15 AM 37.4 °F 28.2 °F 26.6 °F 65% 30.10 in 10.0 mi SSW 16.1 mph - N/A   Clear
5:35 AM 37.4 °F 28.2 °F 26.6 °F 65% 30.10 in 10.0 mi SSW 16.1 mph - N/A   Clear
5:55 AM 37.4 °F 28.5 °F 26.6 °F 65% 30.10 in 10.0 mi SSW 15.0 mph - N/A   Clear
6:15 AM 37.4 °F 27.8 °F 26.6 °F 65% 30.10 in 10.0 mi SSW 17.3 mph - N/A   Clear
6:35 AM 37.4 °F 27.8 °F 26.6 °F 65% 30.10 in 10.0 mi SSW 17.3 mph - N/A   Clear
6:55 AM 37.4 °F 27.8 °F 26.6 °F 65% 30.10 in 10.0 mi SSW 17.3 mph - N/A   Clear
7:15 AM 39.2 °F 30.2 °F 26.6 °F 61% 30.10 in 10.0 mi SSW 17.3 mph - N/A   Clear
7:35 AM 39.2 °F 29.8 °F 26.6 °F 61% 30.10 in 10.0 mi SSW 18.4 mph 23.0 mph N/A   Clear
7:55 AM 41.0 °F 31.6 °F 26.6 °F 57% 30.10 in 10.0 mi SSW 20.7 mph - N/A   Clear
8:15 AM 42.8 °F 33.8 °F 26.6 °F 53% 30.10 in 10.0 mi SSW 21.9 mph 29.9 mph N/A   Clear
8:35 AM 44.6 °F 36.1 °F 28.4 °F 53% 30.10 in 10.0 mi SSW 21.9 mph 27.6 mph N/A   Clear
8:55 AM 44.6 °F 36.1 °F 28.4 °F 53% 30.09 in 10.0 mi SSW 21.9 mph 28.8 mph N/A   Clear
9:15 AM 46.4 °F 38.3 °F 28.4 °F 50% 30.09 in 10.0 mi SSW 23.0 mph 31.1 mph N/A   Clear
9:35 AM 48.2 °F - 28.4 °F 46% 30.09 in 10.0 mi SSW 25.3 mph 31.1 mph N/A   Clear
9:55 AM 51.8 °F - 30.2 °F 44% 30.08 in 10.0 mi SSW 25.3 mph 31.1 mph N/A   Clear
10:15 AM 51.8 °F - 30.2 °F 44% 30.09 in 10.0 mi SW 23.0 mph 32.2 mph N/A   Clear
10:35 AM 53.6 °F - 28.4 °F 38% 30.09 in 10.0 mi SW 23.0 mph 35.7 mph N/A   Clear
10:55 AM 55.4 °F - 28.4 °F 36% 30.08 in 10.0 mi SW 27.6 mph 34.5 mph N/A   Clear
11:15 AM 57.2 °F - 30.2 °F 36% 30.08 in 10.0 mi SW 23.0 mph 32.2 mph N/A   Clear
11:35 AM 57.2 °F - 28.4 °F 33% 30.07 in 10.0 mi SW 25.3 mph 35.7 mph N/A   Clear
11:55 AM 60.8 °F - 30.2 °F 31% 30.06 in 10.0 mi SW 25.3 mph 34.5 mph N/A   Clear
12:15 PM 60.8 °F - 28.4 °F 29% 30.06 in 10.0 mi SW 28.8 mph 35.7 mph N/A   Clear
12:35 PM 60.8 °F - 28.4 °F 29% 30.05 in 10.0 mi SW 27.6 mph 38.0 mph N/A   Clear
12:55 PM 62.6 °F - 28.4 °F 27% 30.04 in 10.0 mi SW 28.8 mph 34.5 mph N/A   Clear
1:15 PM 62.6 °F - 28.4 °F 27% 30.04 in 10.0 mi SW 26.5 mph 34.5 mph N/A   Clear
1:35 PM 62.6 °F - 28.4 °F 27% 30.03 in 10.0 mi SW 26.5 mph 35.7 mph N/A   Clear
1:55 PM 62.6 °F - 26.6 °F 26% 30.03 in 10.0 mi SW 27.6 mph 36.8 mph N/A   Clear
2:15 PM 64.4 °F - 26.6 °F 24% 30.02 in 10.0 mi SW 29.9 mph 36.8 mph N/A   Clear
2:35 PM 64.4 °F - 24.8 °F 22% 30.01 in 10.0 mi SW 27.6 mph 36.8 mph N/A   Clear
2:55 PM 64.4 °F - 26.6 °F 24% 30.01 in 10.0 mi SW 23.0 mph 35.7 mph N/A   Clear
3:15 PM 64.4 °F - 28.4 °F 26% 30.00 in 10.0 mi SSW 21.9 mph 29.9 mph N/A   Clear
3:35 PM 64.4 °F - 26.6 °F 24% 29.99 in 10.0 mi SW 26.5 mph 32.2 mph N/A   Clear
3:55 PM 64.4 °F - 28.4 °F 26% 29.99 in 10.0 mi SSW 21.9 mph 28.8 mph N/A   Clear
4:15 PM 64.4 °F - 28.4 °F 26% 29.99 in 10.0 mi SSW 21.9 mph 26.5 mph N/A   Clear
4:35 PM 64.4 °F - 28.4 °F 26% 29.99 in 10.0 mi SW 18.4 mph 25.3 mph N/A   Clear
4:55 PM 62.6 °F - 32.0 °F 32% 29.99 in 10.0 mi SSW 15.0 mph - N/A   Clear
5:15 PM 62.6 °F - 30.2 °F 30% 29.98 in 10.0 mi SSW 13.8 mph - N/A   Clear
5:35 PM 60.8 °F - 32.0 °F 34% 29.98 in 10.0 mi SSW 11.5 mph - N/A   Clear
5:55 PM 57.2 °F - 32.0 °F 38% 29.98 in 10.0 mi South 12.7 mph - N/A   Clear
6:15 PM 55.4 °F - 33.8 °F 44% 29.98 in 10.0 mi South 12.7 mph - N/A   Clear
6:35 PM 51.8 °F - 33.8 °F 50% 29.98 in 10.0 mi South 12.7 mph - N/A   Clear
6:55 PM 48.2 °F - 33.8 °F 58% 29.99 in 10.0 mi South 12.7 mph - N/A   Clear
7:15 PM 48.2 °F - 32.0 °F 54% 29.99 in 10.0 mi South 11.5 mph - N/A   Clear
7:35 PM 46.4 °F 40.7 °F 32.0 °F 57% 29.99 in 10.0 mi South 12.7 mph - N/A   Clear
7:55 PM 46.4 °F 40.7 °F 32.0 °F 57% 29.99 in 10.0 mi South 12.7 mph - N/A   Clear
8:15 PM 46.4 °F 40.7 °F 30.2 °F 53% 30.00 in 10.0 mi South 12.7 mph - N/A   Clear
8:35 PM 44.6 °F 38.8 °F 30.2 °F 57% 30.00 in 10.0 mi South 11.5 mph - N/A   Clear
8:55 PM 46.4 °F 40.7 °F 28.4 °F 50% 30.00 in 10.0 mi South 12.7 mph - N/A   Clear
9:15 PM 46.4 °F 40.4 °F 28.4 °F 50% 30.01 in 10.0 mi South 13.8 mph - N/A   Clear
9:35 PM 46.4 °F 40.4 °F 28.4 °F 50% 30.01 in 10.0 mi South 13.8 mph - N/A   Clear
9:55 PM 46.4 °F 40.1 °F 28.4 °F 50% 30.01 in 10.0 mi South 15.0 mph - N/A   Clear
10:15 PM 44.6 °F 37.4 °F 28.4 °F 53% 30.02 in 10.0 mi South 16.1 mph - N/A   Clear
10:35 PM 42.8 °F 35.8 °F 28.4 °F 57% 30.02 in 10.0 mi South 13.8 mph - N/A   Clear
10:55 PM 42.8 °F 35.8 °F 28.4 °F 57% 30.03 in 10.0 mi South 13.8 mph - N/A   Clear
11:15 PM 42.8 °F 35.4 °F 28.4 °F 57% 30.03 in 10.0 mi South 15.0 mph - N/A   Clear
11:35 PM 42.8 °F 36.2 °F 28.4 °F 57% 30.03 in 10.0 mi South 12.7 mph - N/A   Clear
11:55 PM 41.0 °F 33.9 °F 28.4 °F 61% 30.03 in 10.0 mi South 12.7 mph - N/A   Clear